sat.trackr.live / text

‹ back to catalog

COSMO-SKYMED 4

NORAD 37216 · 2010-060A

PAYLOAD ACTIVE UNKNOWN

§ Identity

Operator
Country
IT
Launch date
2010-11-06
Launch site
AFWTR
Launch vehicle
Mass (kg)
RCS (m²)
4.40

Purposes: earth_obs

External: N2YO · Heavens-Above · Gunter

§ Orbital elements

Epoch: 2026-09-20T03:51:56.178432Z

Period
97.16 min
Inclination
97.8918°
Eccentricity
0.0001422
Mean motion
14.82155967 rev/d
Perigee alt
621.5 km
Apogee alt
623.5 km
Semi-major
7,000.7 km
B*
3.5240e-5
RAAN
85.4099°
Arg perigee
81.4507°
Mean anomaly
278.6867°
Rev number
85,863

§ Raw data

COSMO-SKYMED 41 37216U 10060A   26263.16106688  .00000228  00000+0  35240-4 0  99902 37216  97.8918  85.4099 0001422  81.4507 278.6867 14.82155967858634

JSON: /api/v1/satellites/37216 · /tle

For live sub-satellite position, see the globe view (requires WebGL).

§ Visibility from observer

Set your observer location to see the next 7 days of passes ≥ 10°. The values pass through the URL so the page stays shareable.

No JS? Fill the form by hand. The geolocation button needs JavaScript.

§ Radio — SatNOGS DB

ModeDescriptionDownlinkUplink
FM S-band telemetry 2.244 GHz
FM S-band telemetry 2.230 GHz

2 transmitters · refreshed weekly from db.satnogs.org